This demonstration page uses our WeatherBlox Daily Observations layout. Learn more.

Left ArrowRight Arrow

Hourly Observations for September 30, 2020

Temp ( °F °C ) Dew Point ( °F °C ) Humidity (%) Winds ( mph kmh ) Pressure ( in mb ) Visibility ( mi km ) Precip ( " mm )
12:15 am 00:15 Cloudy 50 10 50 10 100 100 Calm 29.73 1007 3 5 0.00 0.00
12:35 am 00:35 Cloudy 50 10 50 10 100 100 N 5 7 29.71 1006 10 16 0.00 0.00
12:55 am 00:55 Cloudy 50 10 50 10 100 100 Calm 29.68 1005 10 16 0.00 0.00
1:15 am 01:15 Mostly Cloudy 50 10 50 10 100 100 NE 5 7 29.65 1004 10 16 0.00 0.00
1:35 am 01:35 Cloudy 50 10 50 10 100 100 NNE 6 9 29.63 1003 10 16 0.00 0.00
1:55 am 01:55 Cloudy 50 10 50 10 100 100 WNW 10 17 29.66 1004 10 16 0.00 0.00
2:15 am 02:15 Cloudy 50 10 50 10 100 100 WNW 13 20 29.71 1006 7 11 0.00 0.00
2:35 am 02:35 Cloudy 50 10 50 10 100 100 WNW 9 15 29.70 1006 10 16 0.00 0.00
2:55 am 02:55 Cloudy 50 10 50 10 100 100 WNW 7 11 29.71 1006 10 16 0.00 0.00
3:15 am 03:15 Cloudy 50 10 50 10 100 100 W 7 11 29.73 1007 5 8 0.00 0.00
3:35 am 03:35 Cloudy 50 10 50 10 100 100 W 3 6 29.73 1007 7 11 0.00 0.00
3:55 am 03:55 Cloudy 50 10 50 10 100 100 W 5 7 29.73 1007 10 16 0.00 0.00
4:15 am 04:15 Cloudy 50 10 50 10 100 100 WSW 5 7 29.73 1007 10 16 0.00 0.00
4:35 am 04:35 Cloudy 50 10 50 10 100 100 WSW 3 6 29.73 1007 10 16 0.00 0.00
4:55 am 04:55 Cloudy 48 9 48 9 100 100 WSW 6 9 29.74 1007 10 16 0.00 0.00
5:15 am 05:15 Cloudy 50 10 50 10 100 100 SW 3 6 29.75 1007 10 16 0.00 0.00
5:35 am 05:35 Mostly Cloudy 48 9 48 9 100 100 WSW 7 11 29.75 1007 10 16 0.00 0.00
5:55 am 05:55 Partly Cloudy 48 9 48 9 100 100 SW 3 6 29.77 1008 10 16 0.00 0.00
6:15 am 06:15 Partly Cloudy 48 9 48 9 100 100 Calm 29.77 1008 10 16 0.00 0.00
6:35 am 06:35 Clear 46 8 46 8 100 100 S 5 7 29.79 1009 10 16 0.00 0.00
6:55 am 06:55 Clear 46 8 46 8 100 100 SW 5 7 29.79 1009 10 16 0.00 0.00
7:15 am 07:15 Sunny 46 8 46 8 100 100 SW 5 7 29.80 1009 10 16 0.00 0.00
7:35 am 07:35 Sunny N/A N/A N/A Calm N/A 10 16 0.00 0.00
7:55 am 07:55 Sunny N/A N/A N/A S 3 6 N/A 10 16 0.00 0.00
8:15 am 08:15 Sunny N/A N/A N/A SSW 3 6 N/A 10 16 0.00 0.00
8:35 am 08:35 Sunny 48 9 48 9 100 100 S 3 6 29.84 1010 10 16 0.00 0.00
8:55 am 08:55 Sunny 50 10 50 10 100 100 SW 5 7 29.85 1011 10 16 0.00 0.00
9:15 am 09:15 Sunny 52 11 50 10 94 94 WSW 8 13 29.85 1011 10 16 0.00 0.00
9:35 am 09:35 Sunny 54 12 50 10 88 88 SW 6 9 29.85 1011 10 16 0.00 0.00
9:55 am 09:55 Sunny 55 13 46 8 72 72 W 9 15 29.85 1011 10 16 0.00 0.00
10:15 am 10:15 Sunny 57 14 46 8 67 67 W 6 9 29.86 1011 10 16 0.00 0.00
10:35 am 10:35 Sunny 59 15 48 9 68 68 W 7 11 29.86 1011 10 16 0.00 0.00
10:55 am 10:55 Sunny 59 15 46 8 63 63 W 9 15 29.86 1011 10 16 0.00 0.00
11:15 am 11:15 Sunny 61 16 46 8 59 59 WNW 16 26 29.87 1011 10 16 0.00 0.00
11:35 am 11:35 Sunny 61 16 46 8 59 59 WNW 10 17 29.86 1011 10 16 0.00 0.00
11:55 am 11:55 Partly Cloudy 63 17 46 8 56 56 W 15 24 29.87 1011 10 16 0.00 0.00
12:15 pm 12:15 Mostly Cloudy 63 17 46 8 56 56 WNW 16 26 29.88 1012 10 16 0.00 0.00
12:35 pm 12:35 Mostly Cloudy 63 17 48 9 59 59 W 8 13 29.88 1012 10 16 0.00 0.00
12:55 pm 12:55 Mostly Cloudy 64 18 46 8 52 52 WSW 8 13 29.87 1012 10 16 0.00 0.00
1:15 pm 13:15 Partly Cloudy 64 18 46 8 52 52 WSW 8 13 29.86 1011 10 16 0.00 0.00
1:35 pm 13:35 Sunny 64 18 46 8 52 52 W 12 19 29.85 1011 10 16 0.00 0.00
1:55 pm 13:55 Partly Cloudy 64 18 46 8 52 52 WSW 8 13 29.85 1011 10 16 0.00 0.00
2:15 pm 14:15 Sunny 68 20 46 8 46 46 WSW 12 19 29.84 1011 10 16 0.00 0.00
2:35 pm 14:35 Sunny 68 20 46 8 46 46 WSW 10 17 29.83 1010 10 16 0.00 0.00
2:55 pm 14:55 Sunny 68 20 48 9 49 49 SSW 12 19 29.84 1011 10 16 0.00 0.00
3:15 pm 15:15 Sunny 68 20 46 8 46 46 W 12 19 29.83 1010 10 16 0.00 0.00
3:35 pm 15:35 Sunny 70 21 46 8 43 43 SW 8 13 29.83 1010 10 16 0.00 0.00
3:55 pm 15:55 Sunny 68 20 46 8 46 46 W 9 15 29.83 1010 10 16 0.00 0.00
4:15 pm 16:15 Sunny 70 21 46 8 43 43 WSW 8 13 29.83 1010 10 16 0.00 0.00
4:35 pm 16:35 Sunny 70 21 46 8 43 43 WSW 9 15 29.83 1010 10 16 0.00 0.00
4:55 pm 16:55 Sunny 70 21 50 10 50 50 SW 8 13 29.83 1010 10 16 0.00 0.00
5:15 pm 17:15 Sunny 68 20 50 10 53 53 S 8 13 29.82 1010 10 16 0.00 0.00
5:35 pm 17:35 Sunny 68 20 52 11 56 56 SSW 9 15 29.82 1010 10 16 0.00 0.00
5:55 pm 17:55 Sunny 68 20 52 11 56 56 SSW 8 13 29.83 1010 10 16 0.00 0.00
6:15 pm 18:15 Sunny 68 20 52 11 56 56 SSW 6 9 29.83 1010 10 16 0.00 0.00
6:35 pm 18:35 Sunny 64 18 52 11 64 64 SSW 6 9 29.84 1011 10 16 0.00 0.00
6:55 pm 18:55 Clear 63 17 52 11 68 68 SSW 6 9 29.86 1011 10 16 0.00 0.00
7:15 pm 19:15 Clear 63 17 52 11 68 68 S 5 7 29.86 1011 10 16 0.00 0.00
7:35 pm 19:35 Clear 63 17 52 11 68 68 S 7 11 29.86 1011 10 16 0.00 0.00
7:55 pm 19:55 Clear 61 16 52 11 72 72 S 5 7 29.87 1011 10 16 0.00 0.00
8:15 pm 20:15 Clear 61 16 52 11 72 72 S 6 9 29.87 1011 10 16 0.00 0.00
8:35 pm 20:35 Clear 59 15 52 11 77 77 S 7 11 29.87 1011 10 16 0.00 0.00
8:55 pm 20:55 Clear 59 15 52 11 77 77 S 5 7 29.87 1011 10 16 0.00 0.00
9:15 pm 21:15 Clear 59 15 52 11 77 77 SSW 6 9 29.88 1012 10 16 0.00 0.00
9:35 pm 21:35 Clear 59 15 52 11 77 77 SSW 7 11 29.88 1012 10 16 0.00 0.00
9:55 pm 21:55 Clear 57 14 52 11 82 82 S 7 11 29.89 1012 10 16 0.00 0.00
10:15 pm 22:15 Clear 57 14 52 11 82 82 SSW 6 9 29.90 1013 10 16 0.00 0.00
10:35 pm 22:35 Clear 55 13 52 11 88 88 SSW 5 7 29.90 1013 10 16 0.00 0.00
10:55 pm 22:55 Clear 55 13 52 11 88 88 SSW 6 9 29.90 1013 10 16 0.00 0.00
11:15 pm 23:15 Clear 55 13 52 11 88 88 S 6 9 29.90 1013 10 16 0.00 0.00
11:35 pm 23:35 Clear 55 13 52 11 88 88 S 7 11 29.90 1013 10 16 0.00 0.00
11:55 pm 23:55 Clear 54 12 52 11 94 94 S 6 9 29.90 1013 10 16 0.00 0.00

Powered by AerisWeather